Location: Honea-Egypt Observatory
(30.2769°N, 95.5936°W)
Time: 09:16:31
(UTC-06:00)

Hubble Space Telescope - Visible Passes

Search period start: 27 November 2020 00:00
Search period end: 07 December 2020 00:00
Orbit: 536 x 540 km, 28.5° (Epoch: 26 November)

Date Brightness Start Highest point End Pass type
(mag) Time Alt. Az. Time Alt. Az. Time Alt. Az.
27 Nov 3.3 19:27:54 10° SSW 19:28:45 13° S 19:28:45 13° S visible
28 Nov 2.8 19:16:36 10° SSW 19:18:42 19° S 19:18:42 19° S visible
29 Nov 2.3 19:05:27 10° SW 19:08:37 25° SSE 19:08:37 25° SSE visible
30 Nov 1.9 18:54:23 10° SW 18:58:01 31° SSE 18:58:31 30° SSE visible
01 Dec 1.7 18:43:24 10° SW 18:47:13 36° SSE 18:48:23 30° SE visible
02 Dec 1.5 18:32:28 10° WSW 18:36:23 43° SSE 18:38:14 26° ESE visible
02 Dec 4.0 20:13:19 10° W 20:13:34 11° W 20:13:34 11° W visible
03 Dec 1.3 18:21:35 10° WSW 18:25:34 49° SSE 18:28:05 21° E visible
03 Dec 3.6 20:02:32 10° W 20:03:24 16° W 20:03:24 16° W visible
04 Dec 1.2 18:10:44 10° WSW 18:14:46 56° S 18:17:56 16° E visible
04 Dec 3.2 19:51:45 10° W 19:53:15 21° W 19:53:15 21° W visible
05 Dec 1.1 17:59:54 10° WSW 18:03:58 61° S 18:07:48 11° E visible
05 Dec 2.6 19:40:58 10° W 19:43:08 29° WSW 19:43:08 29° WSW visible
06 Dec 1.0 17:49:05 10° WSW 17:53:11 66° S 17:57:16 10° E visible
06 Dec 2.0 19:30:12 10° W 19:33:02 40° WSW 19:33:02 40° WSW visible
